Regional Weather Roundup
Issued by NWS State College, PA

Home | Current Version | Previous Version | Graphics & Text | Print | Product List | Glossary Off
Versions: 1 2 3 4 5 6 7 8 9 10 11 12 13 14 15 16 17 18 19 20 21 22 23 24 25 26 27 28 29 30 31 32 33 34 35 36 37 38 39 40 41 42 43 44 45 46 47 48 49 50

000
ASUS41 KCTP 282303
RWRCTP

REGIONAL WEATHER ROUNDUP
NATIONAL WEATHER SERVICE STATE COLLEGE PA
700 PM EDT MON JUL 28 2014

Note: "fair" indicates few or no clouds below 12,000 feet with no
significant weather and/or obstructions to visibility.

* = STATION THAT DOES NOT REPORT PRECIPITATION /E.G. RAIN...SNOW...ETC/
    THUNDER OR FOG.

PAZ002>004-007>009-013>016-020>023-029>032-290000-
WESTERN PENNSYLVANIA

CITY           SKY/WX    TMP DP  RH WIND       PRES   REMARKS
ERIE           CLOUDY    64  51  62 NW14G30   29.88R
MEADVILLE      CLOUDY    59  52  77 NW8       29.91R
FRANKLIN*      CLOUDY    57  54  88 W10G16    29.91R
NEW CASTLE       N/A     63  55  75 NW12G20   29.92R
BEAVER COUNTY  CLOUDY    61  55  82 NW9       29.91R
BUTLER*        CLOUDY    61  54  77 NW7       29.92R
PITTSBURGH INT CLOUDY    63  56  78 NW16      29.90S
PITTSBURGH     CLOUDY    61  55  81 NW12G21   29.89R
INDIANA*       CLOUDY    64  57  77 N12       29.90R
LATROBE        CLOUDY    61  61 100 NW14      29.89R
WASHINGTON CO* CLOUDY    63  54  72 NW6       29.92S
$$

PAZ004>006-010>012-017>019-024>028-033>037-041-042-045-046-049>053-290000-
CENTRAL PENNSYLVANIA

CITY           SKY/WX    TMP DP  RH WIND       PRES   REMARKS
BRADFORD       CLOUDY    57  54  89 NW8       29.85R
DUBOIS         CLOUDY    62  56  80 NW8       29.84R
CLEARFIELD     CLOUDY    63  56  78 NW9       29.83R
JOHNSTOWN      LGT RAIN  59  57  93 NW13G21   29.86R
ALTOONA        CLOUDY    65  58  78 NW10G21   29.82R
STATE COLLEGE  PTSUNNY   64  57  77 MISG      29.79R
WILLIAMSPORT   CLOUDY    69  55  60 NW10G23   29.72R
SELINSGROVE    CLOUDY    70  64  81 VRB5      29.72R
FT INDIANTOWN  PTSUNNY   68  65  92 W6        29.71R
CAPITAL CITY   RAIN      65  63  93 SW6       29.72R FOG
HARRISBURG     RAIN      67  63  87 W8        29.71R FOG
YORK           LGT RAIN  72  60  66 N16G22    29.72R
$$

PAZ038>040-043-044-047-048-054-055-060>062-067>071-290000-
EASTERN PENNSYLVANIA

CITY           SKY/WX    TMP DP  RH WIND       PRES   REMARKS
SCRANTON       CLOUDY    66  58  75 W9G18     29.70R
MOUNT POCONO   CLOUDY    62  58  86 NW15G28   29.69R
ALLENTOWN      CLOUDY    69  62  78 W7        29.66R
QUAKERTOWN*    CLOUDY    66  63  88 W6        29.68R
READING        CLOUDY    69  62  78 W9        29.68R
LANCASTER      RAIN      65  61  87 NW10      29.71R FOG
COATESVILLE    HVY RAIN  68  61  77 NW22G40   29.72R
POTTSTOWN      CLOUDY    70  59  68 NW8       29.69R
BLUE BELL      PTSUNNY   79  61  53 NW10G17   29.65R
DOYLESTOWN     CLOUDY    71  60  68 NW16G25   29.66R
WILLOW GROVE   NOT AVBL
NORTH PHILA    MOSUNNY   81  56  42 W14G25    29.65R
PHILADELPHIA   MOSUNNY   82  57  42 W17G30    29.64R
$$


USA.gov is the U.S. government's official web portal to all federal, state and local government web resources and services.